Weather History for Lewisburg, WV

Change the Weather History Date:

Wednesday, January 30, 2013

  Actual Average Record
Temperature  
Mean Temperature 50 °F 29 °F  
Max Temperature 60 °F 40 °F 70 °F (2002)
Min Temperature 39 °F 19 °F -12 °F (2014)
Degree Days  
Heating Degree Days 16    
Month to date heating degree days  
Cooling Degree Days 0    
Month to date cooling degree days  
Year to date cooling degree days  
Moisture  
Dew Point 45 °F    
Average Humidity 82    
Maximum Humidity 94    
Minimum Humidity 63    
Precipitation  
Precipitation 1.87 in 0.10 in 1.82 in (2013)
Month to date precipitation 3.05  
Year to date precipitation 3.05  
Sea Level Pressure  
Sea Level Pressure 29.67 in    
Wind  
Wind Speed 6 mph (SSW)    
Max Wind Speed 23 mph    
Max Gust Speed 29 mph    
Visibility 8 miles    
Events Rain , Thunderstorm    
T = Trace of Precipitation, MM = Missing Value Source: NWS Daily Summary

Daily Weather History Graph

Daily Weather History Graph

Search for Another Location

Airport:

Trip Planner

Search our weather history database for the weather conditions in past years. The results will help you decide how hot, cold, wet, or windy it might be!

Date:

Astronomy

Jan. 30, 2013 Rise Set
Actual Time 7:27 AM EST 5:43 PM EST
Civil Twilight 6:59 AM EST 6:10 PM EST
Nautical Twilight 6:27 AM EST 6:42 PM EST
Astronomical Twilight 5:56 AM EST 7:13 PM EST
Moon 9:34 PM EST (1/30) 8:59 AM EST (1/30)
Length of Visible Light 11h 11m
Length of Day
10h 15m
Waning Gibbous, 88% of the Moon is Illuminated
Jan 30
Waning Gibbous
Feb 3
Last Quarter
Feb 10
New
Feb 17
First Quarter
Feb 25
Full

Hourly Weather History & Observations

Time (EST) Temp. Windchill Dew Point Humidity Pressure Visibility Wind Dir Wind Speed Gust Speed Precip Events Conditions
12:15 AM 41.0 °F 39.0 °F 37.4 °F 87% 29.97 in 10.0 mi North 3.5 mph - N/A   Clear
12:35 AM 41.0 °F - 37.4 °F 87% 29.97 in 10.0 mi Calm Calm - N/A   Clear
12:55 AM 41.0 °F - 37.4 °F 87% 29.95 in 10.0 mi Calm Calm - N/A   Clear
1:15 AM 39.2 °F - 35.6 °F 87% 29.93 in 10.0 mi Calm Calm - N/A   Clear
1:35 AM 41.0 °F - 37.4 °F 87% 29.93 in 10.0 mi Calm Calm - N/A   Clear
1:55 AM 39.2 °F 37.0 °F 35.6 °F 87% 29.91 in 7.0 mi NNE 3.5 mph - N/A   Clear
2:15 AM 41.0 °F 39.0 °F 37.4 °F 87% 29.91 in 10.0 mi NE 3.5 mph - N/A   Mostly Cloudy
2:35 AM 41.0 °F 39.0 °F 39.2 °F 93% 29.91 in 7.0 mi ENE 3.5 mph - N/A   Overcast
2:55 AM 41.0 °F - 37.4 °F 87% 29.90 in 10.0 mi Calm Calm - N/A   Overcast
3:15 AM 42.8 °F - 39.2 °F 87% 29.89 in 10.0 mi Calm Calm - N/A   Overcast
3:35 AM 42.8 °F 40.1 °F 41.0 °F 93% 29.87 in 10.0 mi North 4.6 mph - N/A   Overcast
3:55 AM 46.4 °F - 44.6 °F 93% 29.85 in 10.0 mi Calm Calm - N/A   Overcast
4:15 AM 55.4 °F - 48.2 °F 77% 29.84 in 10.0 mi South 10.4 mph 16.1 mph N/A   Mostly Cloudy
4:35 AM 55.4 °F - 46.4 °F 72% 29.83 in 10.0 mi SSW 4.6 mph - N/A   Scattered Clouds
4:55 AM 55.4 °F - 46.4 °F 72% 29.82 in 10.0 mi SSW 8.1 mph - N/A   Scattered Clouds
5:15 AM 57.2 °F - 48.2 °F 72% 29.82 in 10.0 mi SSW 17.3 mph 23.0 mph N/A   Mostly Cloudy
5:35 AM 57.2 °F - 48.2 °F 72% 29.82 in 10.0 mi SSW 13.8 mph 21.9 mph N/A   Overcast
5:55 AM 57.2 °F - 46.4 °F 67% 29.81 in 10.0 mi SSW 15.0 mph 21.9 mph N/A   Mostly Cloudy
6:15 AM 57.2 °F - 46.4 °F 67% 29.80 in 10.0 mi SSW 17.3 mph 28.8 mph N/A   Scattered Clouds
6:35 AM 57.2 °F - 46.4 °F 67% 29.79 in 10.0 mi SSW 13.8 mph 25.3 mph N/A   Scattered Clouds
6:55 AM 59.0 °F - 46.4 °F 63% 29.80 in 10.0 mi SSW 13.8 mph 27.6 mph N/A   Mostly Cloudy
7:15 AM 59.0 °F - 46.4 °F 63% 29.79 in 10.0 mi South 11.5 mph 20.7 mph N/A   Overcast
7:35 AM 59.0 °F - 46.4 °F 63% 29.79 in 10.0 mi SSW 13.8 mph 24.2 mph N/A   Overcast
7:55 AM 59.0 °F - 48.2 °F 67% 29.78 in 10.0 mi SSW 23.0 mph 27.6 mph N/A   Overcast
8:15 AM 59.0 °F - 48.2 °F 67% 29.76 in 10.0 mi South 12.7 mph 20.7 mph N/A   Overcast
8:35 AM 59.0 °F - 48.2 °F 67% 29.75 in 10.0 mi South 15.0 mph 25.3 mph N/A   Overcast
8:55 AM 59.0 °F - 48.2 °F 67% 29.76 in 10.0 mi SSW 18.4 mph 24.2 mph N/A   Overcast
9:15 AM 59.0 °F - 50.0 °F 72% 29.75 in 10.0 mi South 9.2 mph 20.7 mph N/A   Overcast
9:35 AM 59.0 °F - 50.0 °F 72% 29.75 in 10.0 mi South 11.5 mph 18.4 mph N/A Rain Light Rain
9:55 AM 59.0 °F - 50.0 °F 72% 29.73 in 10.0 mi South 11.5 mph 19.6 mph N/A   Overcast
10:15 AM 59.0 °F - 50.0 °F 72% 29.73 in 10.0 mi South 10.4 mph 23.0 mph N/A   Overcast
10:35 AM 60.8 °F - 50.0 °F 68% 29.72 in 10.0 mi SSW 18.4 mph 23.0 mph N/A   Overcast
10:55 AM 60.8 °F - 50.0 °F 68% 29.72 in 10.0 mi SSW 19.6 mph 26.5 mph N/A   Overcast
11:15 AM 60.8 °F - 50.0 °F 68% 29.70 in 10.0 mi SSW 13.8 mph 23.0 mph N/A   Overcast
11:35 AM 60.8 °F - 50.0 °F 68% 29.68 in 10.0 mi SSW 13.8 mph 25.3 mph N/A   Overcast
11:55 AM 60.8 °F - 51.8 °F 72% 29.65 in 10.0 mi South 15.0 mph 27.6 mph N/A Rain Light Rain
12:15 PM 55.4 °F - 46.4 °F 72% 29.70 in 3.0 mi WNW 10.4 mph 27.6 mph 0.15 in Rain Heavy Rain
12:55 PM 51.8 °F - 48.2 °F 88% 29.69 in 5.0 mi Calm Calm - 0.48 in Rain Rain
1:15 PM 51.8 °F - 48.2 °F 88% 29.65 in 4.0 mi ENE 3.5 mph - 0.05 in Rain Light Rain
1:35 PM 51.8 °F - 48.2 °F 88% 29.65 in 2.0 mi Calm Calm - 0.14 in Rain Heavy Rain
1:55 PM 50.0 °F - 48.2 °F 94% 29.64 in 1.8 mi Calm Calm - 0.30 in Rain Heavy Rain
2:15 PM 50.0 °F - 48.2 °F 94% 29.64 in 5.0 mi Calm Calm - 0.01 in Rain Rain
2:35 PM 50.0 °F - 48.2 °F 94% 29.62 in 3.0 mi Calm Calm - 0.06 in Rain Rain
2:55 PM 50.0 °F - 48.2 °F 94% 29.63 in 3.0 mi Calm Calm - 0.11 in Rain Rain
3:15 PM 50.0 °F - 48.2 °F 94% 29.60 in 5.0 mi Calm Calm - 0.04 in Rain Light Rain
3:35 PM 50.0 °F - 48.2 °F 94% 29.59 in 5.0 mi Calm Calm - 0.06 in Rain Rain
3:55 PM 50.0 °F - 46.4 °F 87% 29.59 in 3.0 mi Calm Calm - 0.16 in Rain , Thunderstorm Heavy Thunderstorms and Rain
4:15 PM 50.0 °F - 46.4 °F 87% 29.62 in 5.0 mi SW 4.6 mph - 0.06 in Rain Rain
4:35 PM 50.0 °F - 46.4 °F 87% 29.60 in 5.0 mi Calm Calm - 0.12 in Rain Heavy Rain
4:55 PM 50.0 °F - 46.4 °F 87% 29.58 in 7.0 mi SSE 3.5 mph - 0.18 in Rain Rain
5:15 PM 50.0 °F - 46.4 °F 87% 29.56 in 10.0 mi SSE 3.5 mph - 0.02 in Rain Light Rain
5:35 PM 50.0 °F - 46.4 °F 87% 29.54 in 10.0 mi South 3.5 mph - 0.05 in Rain Rain
5:55 PM 50.0 °F - 46.4 °F 87% 29.54 in 10.0 mi Calm Calm - 0.07 in Rain Light Rain
6:15 PM 50.0 °F - 46.4 °F 87% 29.52 in 10.0 mi South 3.5 mph - 0.02 in Rain Light Rain
6:35 PM 50.0 °F - 46.4 °F 87% 29.50 in 7.0 mi Calm Calm - 0.05 in Rain Light Rain
6:55 PM 48.2 °F - 46.4 °F 93% 29.48 in 7.0 mi Calm Calm - 0.05 in Rain Light Rain
7:15 PM 48.2 °F - 46.4 °F 93% 29.46 in 10.0 mi Calm Calm - N/A Rain Light Rain
7:35 PM 48.2 °F - 44.6 °F 87% 29.45 in 7.0 mi Calm Calm - 0.01 in Rain Rain
7:55 PM 46.4 °F - 44.6 °F 93% 29.45 in 2.5 mi Calm Calm - 0.06 in Rain Rain
8:15 PM 46.4 °F - 44.6 °F 93% 29.42 in 1.2 mi Calm Calm - 0.10 in Rain Heavy Rain
8:35 PM 46.4 °F - 44.6 °F 93% 29.41 in 2.0 mi Calm Calm - 0.15 in Rain Rain
8:55 PM 48.2 °F - 46.4 °F 93% 29.42 in 5.0 mi West 6.9 mph - 0.21 in Rain Heavy Rain
9:15 PM 48.2 °F - 46.4 °F 93% 29.41 in 7.0 mi SSW 4.6 mph - 0.03 in Rain Rain
9:35 PM 48.2 °F - 46.4 °F 93% 29.42 in 7.0 mi WSW 16.1 mph 21.9 mph 0.08 in Rain Rain
9:55 PM 46.4 °F 41.1 °F 42.8 °F 87% 29.42 in 7.0 mi WSW 11.5 mph - 0.12 in Rain Light Rain
10:15 PM 44.6 °F 38.4 °F 41.0 °F 87% 29.44 in 10.0 mi WSW 12.7 mph 24.2 mph 0.01 in Rain Rain
10:35 PM 44.6 °F 37.8 °F 41.0 °F 87% 29.46 in 7.0 mi SW 15.0 mph 19.6 mph 0.06 in Rain Rain
10:55 PM 42.8 °F 37.0 °F 41.0 °F 93% 29.40 in 7.0 mi South 10.4 mph - 0.10 in Rain Rain
11:15 PM 42.8 °F 36.6 °F 41.0 °F 93% 29.41 in 7.0 mi SW 11.5 mph - 0.02 in Rain Rain
11:35 PM 42.8 °F 36.6 °F 39.2 °F 87% 29.40 in 10.0 mi SW 11.5 mph 18.4 mph 0.03 in Rain Light Rain
11:55 PM 42.8 °F 34.8 °F 37.4 °F 81% 29.41 in 10.0 mi WSW 17.3 mph 24.2 mph 0.03 in Rain Light Rain